Skip Page Navigation
NASA JPL Caltech
NASA Logo - Jet Propulsion Laboratory + View the NASA Portal
+ Center for Near-Earth Object Studies
JPL Home Earth Solar System Stars & Galaxies Technology
JPL Solar System Dynamics
BODIES ORBITS EPHEMERIDES TOOLS PHYSICAL DATA DISCOVERY FAQ SITE MAP
JPL Small-Body Database Browser
Search: [ help ]  
19033 (2157 P-L)
Classification: Main-belt Asteroid          SPK-ID: 2019033
Ephemeris | Orbit Diagram | Orbital Elements | Mission Design | Physical Parameters | Discovery Circumstances | Close-Approach Data ]

[ show orbit diagram ]
Orbital Elements at Epoch 2459200.5 (2020-Dec-17.0) TDB
Reference: JPL 32 (heliocentric ecliptic J2000)
 Element Value Uncertainty (1-sigma)   Units 
e .1495567738399344 4.02e-08  
a 3.182410642492221 1.9378e-08 au
q 2.706459573767212 1.2743e-07 au
i 20.54499495179152 4.6896e-06 deg
node 193.6158268340384 1.0755e-05 deg
peri 231.5593441256135 1.6812e-05 deg
M 171.112002723426 1.3826e-05 deg
tp 2458214.877230882801
(2018-Apr-06.37723088)
7.6676e-05 TDB
period 2073.637098711923
5.68
1.894e-05
5.185e-08
d
yr
n .1736080050957906 1.5857e-09 deg/d
Q 3.658361711217231 2.2276e-08 au
  Orbit Determination Parameters
   # obs. used (total)      1317  
   data-arc span      21797 days (59.68 yr)  
   first obs. used      1960-09-24  
   last obs. used      2020-05-29  
   planetary ephem.      DE441  
   SB-pert. ephem.      SB441-N16  
   condition code      0  
   norm. resid. RMS      .49872  
   source      ORB  
   producer      Otto Matic  
   solution date      2021-Apr-13 02:44:43  

Additional Information
 Earth MOID = 1.76186 au 
 Jupiter MOID = 1.93089 au 
 T_jup = 3.083 
[ show covariance matrix ]

Ephemeris | Orbit Diagram | Orbital Elements | Mission Design | Physical Parameters | Discovery Circumstances | Close-Approach Data ]

Physical Parameter Table
Parameter Symbol Value Units Sigma Reference Notes
absolute magnitude H 13.64   n/a E2021B10  
diameter diameter 11.005 km 0.211 urn:nasa:pds:neowise_diameters_albedos::2.0[mainbelt] (http://adsabs.harvard.edu/abs/2011ApJ...741...68M)  
rotation period rot_per 16.7154 h n/a LCDB (Rev. 2020-October); Warner et al., 2009 Result based on less than full coverage, so that the period may be wrong by 30 percent or so.
Published Reference List:
[Pal, A.; Szakats, R.; Kiss, C.; Bodi, A.; et al. (2019) Ap. J. Supl. Ser. 247, id.26.]
geometric albedo albedo 0.064   0.016 urn:nasa:pds:neowise_diameters_albedos::2.0[mainbelt] (http://adsabs.harvard.edu/abs/2011ApJ...741...68M)  

19033 (2157 P-L)          Discovered 1960-Sep-24 by van Houten, C. J., van Houten-Groeneveld, I., Gehrels, T. at Palomar
Reference: 20001111/Numbers.arcLast Updated: 2004-04-19

[ show close-approach data ]
Alternate Designations
 2157 P-L = 1998 KV66 = 2000 RT5 
Ephemeris | Orbit Diagram | Orbital Elements | Mission Design | Physical Parameters | Discovery Circumstances | Close-Approach Data ]
ABOUT SSD CREDITS/AWARDS PRIVACY/COPYRIGHT GLOSSARY LINKS
FirstGov 2021-Apr-19 16:30 UT
(server date/time)  
NASA Home Page
Site Manager:   Ryan S. Park
Webmaster  Alan B. Chamberlin